When you browse on this site, cookies collect data to enhance your experience and personalize the content and advertising you see.
Visit our Privacy Policy to learn more. By continuing to use the site, you agree to this use of cookies and data.
  • In Switzerland
  • List of Countries
  • For 7 days
  • Water Temperature
  • Satellite Maps
  • Weather Map
  • Weather Widgets
  • user-avatar
    Login

    Hourly Weather San Luis

    Today, 21 March, Thursday

    Time Temperature Precipitation Wind Pressure Humidity
    00:00 +12°C° 0 mm 4 mps 702 mmHg 59%
    01:00 +12°C° 0 mm 4 mps 702 mmHg 58%
    02:00 +12°C° 0 mm 4 mps 702 mmHg 61%
    03:00 +13°C° 0 mm 5 mps 702 mmHg 61%
    04:00 +13°C° 0 mm 5 mps 702 mmHg 61%
    05:00 +13°C° 0 mm 6 mps 701 mmHg 60%
    06:00 +14°C° 0 mm 6 mps 701 mmHg 58%
    07:00 +14°C° 0 mm 7 mps 701 mmHg 55%
    08:00 +15°C° 0 mm 8 mps 701 mmHg 53%
    09:00 +17°C° 0 mm 7 mps 701 mmHg 48%
    10:00 +20°C° 0 mm 7 mps 701 mmHg 42%
    11:00 +22°C° 0 mm 7 mps 701 mmHg 37%
    12:00 +23°C° 0 mm 7 mps 701 mmHg 35%
    13:00 +24°C° 0 mm 6 mps 700 mmHg 33%
    14:00 +26°C° 0 mm 6 mps 699 mmHg 32%
    15:00 +26°C° 0 mm 6 mps 699 mmHg 33%
    16:00 +24°C° 0 mm 6 mps 698 mmHg 34%
    17:00 +24°C° 0 mm 6 mps 698 mmHg 34%
    18:00 +22°C° 0 mm 5 mps 697 mmHg 41%
    19:00 +20°C° 0 mm 5 mps 697 mmHg 47%
    20:00 +17°C° 0 mm 5 mps 697 mmHg 54%
    21:00 +17°C° 0 mm 6 mps 697 mmHg 55%
    22:00 +17°C° 0 mm 7 mps 698 mmHg 56%
    23:00 +17°C° 0 mm 9 mps 698 mmHg 57%

    Tomorrow, 22 March, Friday

    Time Temperature Precipitation Wind Pressure Humidity
    00:00 +16°C° 0 mm 8 mps 698 mmHg 58%
    01:00 +16°C° 0 mm 8 mps 698 mmHg 60%
    02:00 +16°C° 0 mm 7 mps 698 mmHg 61%
    03:00 +15°C° 0 mm 6 mps 698 mmHg 63%
    04:00 +15°C° 0 mm 5 mps 698 mmHg 66%
    05:00 +14°C° 0 mm 4 mps 698 mmHg 69%
    06:00 +15°C° 0 mm 4 mps 699 mmHg 64%
    07:00 +18°C° 0 mm 4 mps 700 mmHg 60%
    08:00 +19°C° 0 mm 4 mps 700 mmHg 56%
    09:00 +21°C° 0 mm 3 mps 701 mmHg 49%
    10:00 +24°C° 0 mm 3 mps 701 mmHg 42%
    11:00 +26°C° 0 mm 2 mps 702 mmHg 36%
    12:00 +27°C° 0 mm 2 mps 701 mmHg 33%
    13:00 +28°C° 0 mm 2 mps 701 mmHg 31%
    14:00 +28°C° 0 mm 2 mps 700 mmHg 29%
    15:00 +29°C° 0 mm 2 mps 700 mmHg 29%
    16:00 +29°C° 0 mm 2 mps 699 mmHg 29%
    17:00 +29°C° 0 mm 1 mps 698 mmHg 29%
    18:00 +26°C° 0 mm 2 mps 698 mmHg 36%
    19:00 +23°C° 0 mm 2 mps 698 mmHg 42%
    20:00 +20°C° 0 mm 2 mps 698 mmHg 49%
    21:00 +20°C° 0 mm 3 mps 698 mmHg 51%
    22:00 +19°C° 0 mm 4 mps 698 mmHg 54%
    23:00 +19°C° 0 mm 4 mps 698 mmHg 56%

    Day after tomorrow, 23 March, Saturday

    Time Temperature Precipitation Wind Pressure Humidity
    00:00 +19°C° 0 mm 5 mps 698 mmHg 57%
    01:00 +19°C° 0 mm 6 mps 698 mmHg 58%
    02:00 +18°C° 0 mm 8 mps 698 mmHg 59%
    03:00 +18°C° 0 mm 8 mps 697 mmHg 60%
    04:00 +18°C° 0 mm 7 mps 697 mmHg 60%
    05:00 +18°C° 0 mm 7 mps 697 mmHg 60%
    06:00 +20°C° 0 mm 8 mps 698 mmHg 58%
    07:00 +21°C° 0 mm 8 mps 698 mmHg 56%
    08:00 +22°C° 0 mm 8 mps 698 mmHg 54%
    09:00 +24°C° 0 mm 8 mps 699 mmHg 48%
    10:00 +27°C° 0 mm 7 mps 699 mmHg 42%
    11:00 +29°C° 0 mm 6 mps 700 mmHg 36%
    12:00 +30°C° 0 mm 5 mps 699 mmHg 33%
    13:00 +32°C° 0 mm 5 mps 699 mmHg 31%
    14:00 +32°C° 0 mm 4 mps 698 mmHg 29%
    15:00 +31°C° 0 mm 3 mps 698 mmHg 29%
    16:00 +31°C° 0 mm 3 mps 697 mmHg 29%
    17:00 +31°C° 0 mm 2 mps 697 mmHg 30%
    18:00 +28°C° 0 mm 2 mps 697 mmHg 37%
    19:00 +25°C° 0 mm 2 mps 697 mmHg 44%
    20:00 +23°C° 0 mm 2 mps 697 mmHg 52%
    21:00 +21°C° 0 mm 2 mps 698 mmHg 53%
    22:00 +21°C° 0 mm 2 mps 698 mmHg 54%
    23:00 +20°C° 0 mm 2 mps 699 mmHg 55%

    24 March, Sunday

    Time Temperature Precipitation Wind Pressure Humidity
    00:00 +20°C° 0 mm 3 mps 699 mmHg 51%
    01:00 +19°C° 0 mm 3 mps 700 mmHg 47%
    02:00 +19°C° 0 mm 4 mps 700 mmHg 43%
    03:00 +18°C° 0 mm 4 mps 700 mmHg 40%
    04:00 +16°C° 0 mm 5 mps 700 mmHg 37%
    05:00 +16°C° 0 mm 5 mps 701 mmHg 34%
    06:00 +16°C° 0 mm 5 mps 701 mmHg 32%
    07:00 +17°C° 0 mm 6 mps 702 mmHg 30%
    08:00 +18°C° 0 mm 7 mps 703 mmHg 28%
    09:00 +21°C° 0 mm 7 mps 703 mmHg 26%
    10:00 +23°C° 0 mm 6 mps 703 mmHg 24%
    11:00 +24°C° 0 mm 6 mps 703 mmHg 22%
    12:00 +26°C° 0 mm 6 mps 703 mmHg 22%
    13:00 +27°C° 0 mm 6 mps 702 mmHg 22%
    14:00 +27°C° 0 mm 6 mps 702 mmHg 22%
    15:00 +27°C° 0 mm 6 mps 701 mmHg 23%
    16:00 +26°C° 0 mm 7 mps 701 mmHg 24%
    17:00 +24°C° 0 mm 7 mps 700 mmHg 25%
    18:00 +23°C° 0 mm 7 mps 700 mmHg 28%
    19:00 +21°C° 0 mm 6 mps 700 mmHg 31%
    20:00 +19°C° 0 mm 5 mps 701 mmHg 35%
    21:00 +17°C° 0 mm 5 mps 701 mmHg 36%
    22:00 +17°C° 0 mm 5 mps 701 mmHg 37%
    23:00 +17°C° 0 mm 5 mps 702 mmHg 38%

    25 March, Monday

    Time Temperature Precipitation Wind Pressure Humidity
    00:00 +16°C° 0 mm 6 mps 702 mmHg 39%
    01:00 +16°C° 0 mm 6 mps 702 mmHg 40%
    02:00 +15°C° 0 mm 7 mps 702 mmHg 41%
    03:00 +15°C° 0 mm 6 mps 702 mmHg 44%
    04:00 +14°C° 0 mm 6 mps 701 mmHg 46%
    05:00 +13°C° 0 mm 6 mps 701 mmHg 49%
    06:00 +14°C° 0 mm 6 mps 702 mmHg 48%
    07:00 +15°C° 0 mm 6 mps 703 mmHg 48%
    08:00 +15°C° 0 mm 6 mps 703 mmHg 47%
    09:00 +17°C° 0 mm 6 mps 704 mmHg 42%
    10:00 +20°C° 0 mm 6 mps 704 mmHg 37%
    11:00 +23°C° 0 mm 6 mps 705 mmHg 32%
    12:00 +23°C° 0 mm 6 mps 704 mmHg 31%
    13:00 +25°C° 0 mm 5 mps 704 mmHg 31%
    14:00 +25°C° 0 mm 5 mps 703 mmHg 30%
    15:00 +25°C° 0 mm 5 mps 703 mmHg 31%
    16:00 +23°C° 0 mm 6 mps 702 mmHg 32%
    17:00 +23°C° 0 mm 6 mps 702 mmHg 33%
    18:00 +21°C° 0 mm 6 mps 702 mmHg 37%
    19:00 +19°C° 0 mm 6 mps 702 mmHg 41%
    20:00 +16°C° 0 mm 6 mps 703 mmHg 46%
    21:00 +15°C° 0 mm 5 mps 703 mmHg 48%
    22:00 +15°C° 0 mm 5 mps 703 mmHg 50%
    23:00 +14°C° 0 mm 5 mps 704 mmHg 52%

    26 March, Tuesday

    Time Temperature Precipitation Wind Pressure Humidity
    00:00 +14°C° 0 mm 5 mps 703 mmHg 54%
    01:00 +13°C° 0 mm 5 mps 703 mmHg 57%
    02:00 +13°C° 0 mm 5 mps 703 mmHg 60%
    03:00 +13°C° 0 mm 4 mps 703 mmHg 62%
    04:00 +13°C° 0 mm 4 mps 703 mmHg 64%
    05:00 +13°C° 0 mm 4 mps 703 mmHg 66%
    06:00 +14°C° 0 mm 4 mps 704 mmHg 64%
    07:00 +15°C° 0 mm 4 mps 705 mmHg 63%
    08:00 +15°C° 0 mm 4 mps 705 mmHg 61%
    09:00 +17°C° 0 mm 3 mps 705 mmHg 60%
    10:00 +18°C° 0 mm 3 mps 705 mmHg 59%
    11:00 +19°C° 0 mm 2 mps 706 mmHg 58%
    12:00 +19°C° 0.1 mm 2 mps 705 mmHg 60%
    13:00 +18°C° 0.1 mm 2 mps 705 mmHg 63%
    14:00 +18°C° 0.1 mm 2 mps 704 mmHg 65%
    15:00 +18°C° 0.1 mm 3 mps 704 mmHg 65%
    16:00 +18°C° 0.1 mm 3 mps 704 mmHg 65%
    17:00 +18°C° 0.1 mm 3 mps 704 mmHg 65%
    18:00 +17°C° 0 mm 3 mps 704 mmHg 67%
    19:00 +17°C° 0 mm 3 mps 704 mmHg 68%
    20:00 +17°C° 0 mm 3 mps 704 mmHg 69%
    21:00 +16°C° 0 mm 3 mps 704 mmHg 70%
    22:00 +16°C° 0 mm 3 mps 704 mmHg 72%
    23:00 +16°C° 0 mm 3 mps 704 mmHg 73%
    Show more